Location: Newark
(23.5328°S, 46.7919°W)
Time: 23:19:57
(UTC+00:00)

Envisat - Pass Details

Date: 09 March 2021
Orbit: 764 x 766 km, 98.1° (Epoch: 22 April)

Event Time Altitude Azimuth Distance (km) Brightness Sun altitude
Rises 08:14:27 0° 9° (N) 3,212 6.2 -12.6°
Reaches altitude 10° 08:16:45 10° 7° (N) 2,293 5.4 -12.1°
Maximum altitude 08:21:47 74° 282° (WNW) 800 2.9 -11.0°
Drops below altitude 10° 08:26:54 10° 196° (SSW) 2,319 5.4 -9.8°
Sets 08:29:14 0° 194° (SSW) 3,251 6.2 -9.3°
